Location: Crescent
(42.8242°N, 73.7329°W)
Time: 19:56:39
(UTC+00:00)

Vanguard 2 Rocket - Pass Details

Date: 17 February 2026
Orbit: 553 x 3287 km, 32.9° (Epoch: 5 March)

Event Time Altitude Azimuth Distance (km) Brightness Sun altitude
Rises 16:28:53 0° 223° (SW) 7,232 11.9 34.6°
Reaches altitude 10° 16:34:17 10° 217° (SW) 6,221 11.8 34.8°
Maximum altitude 16:51:24 40° 157° (SSE) 3,728 12.0 35.2°
Drops below altitude 10° 17:03:56 10° 95° (E) 4,633 10.7 35.4°
Sets 17:07:14 0° 87° (E) 5,296 10.8 35.4°
